Regional Weather Roundup
Issued by NWS

Home | Current Version | Previous Version | Graphics & Text | Print | Product List | Glossary On
Versions: 1 2 3 4 5 6 7 8 9 10 11 12 13 14 15 16 17 18 19 20 21 22 23 24 25 26 27 28 29 30 31 32 33 34 35 36 37 38 39 40 41 42 43 44 45 46 47 48 49 50
000
ASUS44 KFWD 240601
RWRTX
NORTH TEXAS HOURLY WEATHER ROUNDUP
NATIONAL WEATHER SERVICE FORT WORTH TX
100 AM CDT THU APR 24 2014

NOTE: "FAIR" INDICATES FEW OR NO CLOUDS BELOW 12,000 FEET WITH NO
SIGNIFICANT WEATHER AND/OR OBSTRUCTIONS TO VISIBILITY.

TXZ118-119-240700-
DALLAS/FORT WORTH METROPLEX

CITY           SKY/WX    TMP DP  RH WIND       PRES   REMARKS
DFW AIRPORT    MOCLDY    74  61  63 S16       29.76R
6HR MIN TEMP:  73; 6HR MAX TEMP:  82;

DALLAS LOVE    MOCLDY    73  61  65 S18       29.77S
6HR MIN TEMP:  73; 6HR MAX TEMP:  83;

FTW MEACHAM    FAIR      73  62  68 S15G25    29.75R
6HR MIN TEMP:  73; 6HR MAX TEMP:  82;

DAL-EXECUTIVE  FAIR      73  62  68 S12G22    29.77S
6HR MIN TEMP:  73; 6HR MAX TEMP:  83;

FTW-ALLIANCE   MOCLDY    72  60  66 S16G25    29.74S
6HR MIN TEMP:  71; 6HR MAX TEMP:  80;

FTW-NAS-JRB    FAIR      76  59  55 S15G22    29.79R
6HR MIN TEMP:  76; 6HR MAX TEMP:  86;

FTW-SPINKS     FAIR      72  61  68 S15G22    29.77S
6HR MIN TEMP:  72; 6HR MAX TEMP:  82;

ARLINGTON      FAIR      72  61  68 SE14G20   29.77R
6HR MIN TEMP:  72; 6HR MAX TEMP:  83;

GRAND PRAIRIE  FAIR      72  59  64 S14       29.79S
ADDISON        FAIR      73  61  65 S12       29.79R
6HR MIN TEMP:  73; 6HR MAX TEMP:  83;

MESQUITE       FAIR      71  62  73 SE14      29.78S
6HR MIN TEMP:  69; 6HR MAX TEMP:  81;

LANCASTER      FAIR      71  61  70 S16G22    29.78S
6HR MIN TEMP:  71; 6HR MAX TEMP:  81;

$$

TXZ091>094-102>105-117-120-121-131>134-240700-
NORTH CENTRAL TEXAS

CITY           SKY/WX    TMP DP  RH WIND       PRES   REMARKS
SHRMAN/DENISON MOCLDY    70  59  68 SE10      29.78F
6HR MIN TEMP:  69; 6HR MAX TEMP:  80;

BOWIE          FAIR      72  60  66 E8G17     29.73F
6HR MIN TEMP:  69; 6HR MAX TEMP:  82; 6HR PCP:  0.10;

BRIDGEPORT     FAIR      73  58  60 SE13G18   29.73F
6HR MIN TEMP:  73; 6HR MAX TEMP:  81;

DECATUR        FAIR      72  59  63 SE14      29.75F
6HR MIN TEMP:  72; 6HR MAX TEMP:  80;

DENTON         FAIR      73  60  63 S15       29.76R
6HR MIN TEMP:  73; 6HR MAX TEMP:  81;

MCKINNEY       FAIR      72  62  71 S14       29.79R
6HR MIN TEMP:  71; 6HR MAX TEMP:  81;

GREENVILLE     FAIR      70  61  73 S8        29.81R
ROCKWALL       FAIR      71  63  75 SE10G16   29.78R
6HR MIN TEMP:  70; 6HR MAX TEMP:  82;

TERRELL        FAIR      72  64  76 S14       29.79S
6HR MIN TEMP:  71; 6HR MAX TEMP:  81;

WAXAHACHIE     FAIR      70  60  72 SE12G17   29.78F
6HR MIN TEMP:  70; 6HR MAX TEMP:  80;

CLEBURNE       FAIR      72  64  78 S15G21    29.78R
GRANBURY       FAIR      74  62  66 SE14      29.76R
6HR MIN TEMP:  74; 6HR MAX TEMP:  85;

$$

TXZ083>090-098>101-113>116-127>130-139>142-154-155-240700-
WESTERN NORTH TEXAS

CITY           SKY/WX    TMP DP  RH WIND       PRES   REMARKS
WICHITA FALLS  FAIR      70  61  73 SE24G30   29.67R
6HR MIN TEMP:  68; 6HR MAX TEMP:  82; 6HR PCP:  0.07;

WF-KICKAPOO    FAIR      71  60  70 SE16G23   29.69F
6HR MIN TEMP:  69; 6HR MAX TEMP:  83;

VERNON         FAIR      72  60  67 SE22      29.65R
6HR MIN TEMP:  72; 6HR MAX TEMP:  90; 6HR PCP:  0.01;

ABILENE        FAIR      71  61  70 S17       29.72R
6HR MIN TEMP:  66; 6HR MAX TEMP:  88; 6HR PCP:  0.05;

ABILENE-DYESS  FAIR      72  60  64 S17       29.70R
6HR MIN TEMP:  72; 6HR MAX TEMP:  90; 6HR PCP:  0.01;

MINERAL WELLS  FAIR      72  61  68 SE18G28   29.70F
6HR MIN TEMP:  72; 6HR MAX TEMP:  83;

STEPHENVILLE   FAIR      72  61  69 S12       29.78R
6HR MIN TEMP:  72; 6HR MAX TEMP:  83;

COMANCHE       FAIR      72  61  69 S14G22    29.75S
6HR MIN TEMP:  72; 6HR MAX TEMP:  84;

BROWNWOOD      FAIR      72  63  73 SE12G17   29.76R
BRADY          CLEAR     72  59  64 S15       29.76R
$$

TXZ143>147-156>162-174-175-240700-
CENTRAL TEXAS

CITY           SKY/WX    TMP DP  RH WIND       PRES   REMARKS
WACO           FAIR      71  62  73 S21G30    29.78S
6HR MIN TEMP:  71; 6HR MAX TEMP:  81;

WACO-MCGREGOR  FAIR      70  59  68 S18G26    29.80S
6HR MIN TEMP:  70; 6HR MAX TEMP:  82;

HILLSBORO      FAIR      72  62  71 SE18      29.78S
6HR MIN TEMP:  72; 6HR MAX TEMP:  82;

CORSICANA      FAIR      71  63  75 S15       29.80F
6HR MIN TEMP:  71; 6HR MAX TEMP:  82;

MEXIA          FAIR      70  64  81 S15G21    29.80S
6HR MIN TEMP:  70; 6HR MAX TEMP:  78;

HEARNE         CLOUDY    71  64  78 SE10G20   29.84R
6HR MIN TEMP:  71; 6HR MAX TEMP:  82;

TEMPLE         FAIR      70  57  64 S24G32    29.82F
6HR MIN TEMP:  70; 6HR MAX TEMP:  81;

KILLEEN        MOCLDY    70  63  78 SE22G29   29.77F
KILLEEN-SKYLRK FAIR     N/A N/A N/A SE18G32   29.77S
HAMILTON       FAIR      71  61  71 S17G23    29.78R
6HR MIN TEMP:  71; 6HR MAX TEMP:  83;

LAMPASAS       FAIR      71  64  80 S14G21    29.78R
6HR MIN TEMP:  71; 6HR MAX TEMP:  81;

$$

TXZ095>097-106>112-122>126-135>138-148>153-164>167-240700-
EAST TEXAS

CITY           SKY/WX    TMP DP  RH WIND       PRES   REMARKS
PARIS          FAIR      70  55  60 SE6       29.83R
6HR MIN TEMP:  68; 6HR MAX TEMP:  79;

SULPHUR SPRNGS FAIR      71  59  65 S13       29.82S
6HR MIN TEMP:  71; 6HR MAX TEMP:  81;

CLARKSVILLE    FAIR      69  57  65 CALM      29.83R
6HR MIN TEMP:  69; 6HR MAX TEMP:  81;

MINEOLA        FAIR      72  64  78 S9        29.82F
TYLER          FAIR      71  61  70 S14G21    29.82F
6HR MIN TEMP:  71; 6HR MAX TEMP:  82;

LONGVIEW       FAIR      69  61  75 S6        29.84S
6HR MIN TEMP:  69; 6HR MAX TEMP:  80;

ATHENS         FAIR      68  63  83 S12       29.80F
PALESTINE      FAIR      70  62  77 SE8       29.85F
JACKSONVILLE   FAIR      66  62  85 S7        29.87S
NACOGDOCHES    FAIR      66  63  88 S7        29.88R
6HR MIN TEMP:  66; 6HR MAX TEMP:  79;

LUFKIN         FAIR      68  64  87 SE6       29.87S
6HR MIN TEMP:  68; 6HR MAX TEMP:  83;

$$

SUPPLEMENTAL OBSERVATIONS (CENTRAL)

CITY           SKY/WX    TMP DP  RH WIND       PRES   REMARKS
$$

SUPPLEMENTAL OBSERVATIONS (WEST)

CITY           SKY/WX    TMP DP  RH WIND       PRES   REMARKS
$$

SUPPLEMENTAL OBSERVATIONS (EAST)

CITY           SKY/WX    TMP DP  RH WIND       PRES   REMARKS
$$

SUPPLEMENTAL OBSERVATIONS ARE A COLLECTION OF AUTOMATED INSTRUMENTS
THAT ARE MAINTAINED BY A VARIETY OF FEDERAL AND STATE AGENCIES.
CERTAIN ELEMENTS...SUCH AS HUMIDITY VALUES AND SUSTAINED WIND
SPEEDS...MAY BE APPROXIMATED.




USA.gov is the U.S. government's official web portal to all federal, state and local government web resources and services.